Simultaneous Nadir Overpasses (SNOs) Predictions

Prediction of SNOs between LANDSAT-8 and NOAA-19 Satellite Orbit:

Table of predicted SNOs for the next 14.0 days since TLE Epoch: 12/11/2016
Index Date (LANDSAT-8) Time (LANDSAT-8) Lat,Lon (LANDSAT-8) SZA (LANDSAT-8 ) Date (NOAA-19) Time (NOAA-19) Lat,Lon (NOAA-19) SZA (NOAA-19 ) Distance(km) Time Diff (sec)
1 12/13/2016 01:10:50 -75.65, -10.47 81.13 12/13/2016 01:09:39 -75.73, -11.69 81.09 35.02 71
2 12/13/2016 02:00:20 75.43, 156.55 98.64 12/13/2016 02:00:34 75.44, 156.53 98.66 1.66 14
3 12/15/2016 06:44:35 75.52, 85.73 98.85 12/15/2016 06:43:30 75.49, 85.69 98.82 2.98 65
4 12/15/2016 07:34:04 -75.44,-106.84 81.23 12/15/2016 07:34:30 -75.44,-106.91 81.22 1.87 26
5 12/17/2016 12:18:20 -75.48,-177.81 81.11 12/17/2016 12:17:27 -75.51,-177.81 81.08 3.88 53
6 12/17/2016 13:07:47 75.40, -10.38 98.81 12/17/2016 13:08:25 75.42, -10.24 98.84 4.11 38
7 12/19/2016 17:52:02 75.49, -81.22 98.94 12/19/2016 17:51:21 75.47, -81.10 98.93 3.62 41
8 12/19/2016 18:41:31 -75.42, 86.22 81.14 12/19/2016 18:42:22 -75.42, 86.33 81.13 2.91 51
9 12/21/2016 23:25:46 -75.50, 15.38 81.05 12/21/2016 23:25:19 -75.50, 15.39 81.05 0.36 27
10 12/22/2016 00:15:13 75.42,-177.21 98.87 12/22/2016 00:16:17 75.45,-177.21 98.91 4.09 64
11 12/24/2016 04:59:28 75.49, 111.93 98.91 12/24/2016 04:59:13 75.52, 111.91 98.94 3.13 15
